1536670800.73,23094,18.25,74584.0,6.87,-0.15,1.93,0,*6A
1536670801.94,23095,18.25,74582.0,6.89,-0.19,2.01,0,*61
1536670803.18,23096,18.25,74568.3,6.89,-1.43,0.87,0,*60
1536670804.4,23097,18.25,74570.0,6.89,-0.85,1.47,0,*67
1536670805.63,23098,18.25,74578.8,6.89,-0.97,1.47,0,*6B
1536670806.82,23099,18.25,74588.0,6.89,0.01,2.09,0,*71
1536670808.02,23100,18.25,74586.0,6.89,-0.19,1.89,0,*6F
1536670809.27,23101,18.25,74580.3,6.91,-0.93,1.43,0,*63
1536670810.5,23102,18.25,74580.5,6.91,-0.69,1.67,0,*63
1536670811.73,23103,18.25,74588.5,6.91,-0.77,1.67,0,*6D
1536670812.94,23104,18.25,74592.8,6.93,-1.29,1.17,0,*55
1536670814.13,23105,18.25,74578.5,6.93,-1.67,0.67,0,*68
1536670815.33,23106,18.25,74570.3,6.93,-1.35,1.05,0,*59
1536670816.54,23107,18.25,74570.3,6.93,-1.87,0.43,0,*62
1536670817.75,23108,18.25,74564.3,6.91,-2.91,-0.49,0,*4C
1536670818.96,23109,18.25,74566.0,6.91,-2.39,0.05,0,*5A
1536670820.18,23110,18.19,74576.5,6.89,-2.55,-0.11,0,*49
1536670821.44,23111,18.25,74582.3,6.91,-2.75,-0.23,0,*42
1536670822.65,23112,18.25,74578.0,6.91,-2.91,-0.15,0,*4E
1536670823.86,23113,18.25,74578.3,6.91,-3.15,0.09,0,*52
1536670825.1,23114,18.25,74572.0,6.91,-2.99,0.79,0,*67
1536670826.36,23115,18.25,74568.3,6.91,-2.63,1.29,0,*57
1536670827.62,23116,18.25,74564.5,6.91,-2.11,1.71,0,*5C
1536670828.85,23117,18.25,74560.0,6.91,-1.75,1.89,0,*5B
1536670830.11,23118,18.25,74558.0,6.91,-1.13,2.13,0,*54
1536670831.34,23119,18.19,74560.3,6.91,-0.49,2.55,0,*69
1536670832.57,23120,18.25,74560.5,6.95,-0.03,2.43,0,*5E
1536670833.78,23121,18.25,74562.8,6.93,0.25,2.25,0,*40
1536670835.01,23122,18.25,74562.8,6.95,1.01,2.59,0,*79
1536670836.23,23123,18.25,74572.3,6.95,0.63,1.75,0,*40
1536670837.47,23124,18.25,74576.0,6.95,0.83,1.93,0,*41
1536670838.71,23125,18.25,74584.0,6.95,0.59,1.55,0,*4D
1536670839.92,23126,18.25,74590.8,6.97,0.29,1.47,0,*48
1536670841.14,23127,18.25,74584.5,6.97,-0.97,0.47,0,*50
1536670842.36,23128,18.25,74578.0,6.97,-0.85,0.83,0,*54
1536670843.57,23129,18.25,74572.3,6.97,-1.33,0.75,0,*60
1536670844.82,23130,18.25,74582.3,6.99,-1.35,1.25,0,*54
1536670846.03,23131,18.25,74586.0,6.97,-1.87,1.01,0,*54
1536670847.22,23132,18.25,74578.0,6.97,-2.83,0.37,0,*64
1536670848.46,23133,18.25,74580.5,6.99,-2.79,0.55,0,*6A
1536670849.68,23134,18.25,74582.8,6.99,-2.79,0.67,0,*6C
1536670850.91,23135,18.25,74580.5,6.97,-2.59,0.87,0,*6F
1536670852.13,23136,18.25,74592.0,6.99,-2.83,0.67,0,*6B
1536670853.35,23137,18.25,74596.3,6.99,-3.11,0.33,0,*61
1536670854.61,23138,18.25,74594.0,6.99,-3.47,0.29,0,*66
1536670855.81,23139,18.25,74596.5,6.99,-3.23,0.43,0,*69
1536670857.02,23140,18.25,74594.0,6.97,-3.39,0.47,0,*66
1536670858.27,23141,18.25,74596.0,6.99,-3.71,0.17,0,*60
1536670859.51,23142,18.25,74604.0,6.99,-3.95,-0.23,0,*43
1536670860.77,23143,18.25,74600.8,6.99,-4.85,-1.05,0,*71
1536670862.04,23144,18.25,74596.8,6.99,-5.89,-1.91,0,*76
1536670863.28,23145,18.25,74592.3,6.95,-5.85,-1.71,0,*79
1536670864.52,23146,18.19,74580.0,6.95,-5.47,-1.35,0,*74
1536670865.71,23147,18.25,74586.5,6.93,-5.51,-1.17,0,*74
1536670866.95,23148,18.25,74588.3,6.91,-5.19,-0.81,0,*4B
1536670868.17,23149,18.25,74588.5,6.91,-5.97,-1.51,0,*70
1536670869.41,23150,18.25,74588.5,6.91,-4.73,-0.37,0,*42
1536670870.65,23151,18.25,74598.3,6.91,-4.85,-0.41,0,*4B
1536670871.89,23152,18.25,74588.3,6.91,-5.11,-0.49,0,*4C
1536670873.07,23153,18.25,74584.0,6.89,-4.99,-0.33,0,*48
1536670874.28,23154,18.25,74584.8,6.91,-4.53,0.05,0,*58
1536670875.49,23155,18.25,74580.0,6.91,-4.65,-0.07,0,*73
1536670876.74,23156,18.25,74572.8,6.95,-4.93,-0.27,0,*4F
1536670877.99,23157,18.25,74560.3,6.95,-4.93,-0.27,0,*4E
1536670879.19,23158,18.25,74558.8,6.93,-4.85,-0.15,0,*41
1536670880.42,23159,18.25,74542.3,6.95,-4.13,0.37,0,*64
1536670881.65,23160,18.25,74540.0,6.95,-3.83,0.29,0,*6F
1536670882.88,23161,18.25,74550.3,6.95,-4.77,-0.57,0,*46
1536670884.11,23162,18.25,74572.8,6.95,-4.49,-0.23,0,*4B
1536670885.34,23163,18.25,74586.3,6.95,-4.89,-0.45,0,*46
1536670886.53,23164,18.25,74590.5,6.95,-4.61,0.01,0,*5A
1536670887.74,23165,18.19,74590.5,6.95,-4.65,0.09,0,*57
1536670888.96,23166,18.25,74596.3,6.95,-4.61,0.13,0,*6B
1536670890.14,23167,18.19,74594.5,6.97,-5.47,-0.49,0,*4F
1536670891.34,23168,18.25,74598.3,6.97,-5.61,-0.61,0,*4E
1536670892.53,23169,18.25,74596.0,6.97,-6.59,-1.51,0,*75
1536670893.72,23170,18.25,74592.8,6.97,-7.19,-2.19,0,*77
1536670894.98,23171,18.25,74592.3,6.95,-6.63,-1.47,0,*70
1536670896.2,23172,18.25,74592.5,6.93,-6.77,-1.43,0,*74
1536670897.42,23173,18.25,74594.8,6.91,-6.81,-1.55,0,*79
1536670898.64,23174,18.25,74594.0,6.91,-6.81,-1.51,0,*7A
1536670899.86,23175,18.25,74592.5,6.91,-6.89,-1.67,0,*76
1536670901.11,23176,18.25,74598.5,6.89,-7.65,-2.47,0,*7E
1536670902.35,23177,18.25,74598.5,6.85,-7.65,-2.47,0,*73
1536670903.59,23178,18.25,74602.5,6.83,-7.31,-2.11,0,*78
1536670904.83,23179,18.25,74600.5,6.83,-7.27,-2.03,0,*7D
1536670906.09,23180,18.25,74598.5,6.81,-7.27,-2.03,0,*79
1536670907.3,23181,18.19,74598.3,6.79,-7.23,-1.91,0,*73
1536670908.52,23182,18.25,74602.0,6.75,-7.69,-2.19,0,*71
1536670909.76,23183,18.25,74592.0,6.73,-7.43,-1.71,0,*73
1536670910.97,23184,18.25,74590.0,6.71,-6.39,-1.01,0,*7D
1536670912.16,23185,18.25,74584.8,6.71,-5.47,-0.37,0,*42
1536670913.39,23186,18.19,74576.3,6.71,-3.55,0.83,0,*66
1536670914.62,23187,18.25,74572.5,6.69,-2.23,1.43,0,*53
1536670915.84,23188,18.25,74560.5,6.69,-2.39,0.87,0,*6E
1536670917.04,23189,18.25,74560.8,6.71,-2.03,0.97,0,*6E
1536670918.28,23190,18.25,74566.8,6.71,-1.01,1.55,0,*58
1536670919.48,23191,18.25,74574.3,6.71,-1.59,0.59,0,*69
1536670920.71,23192,18.25,74570.3,6.71,-1.87,0.37,0,*61
1536670921.97,23193,18.25,74558.5,6.73,-1.13,0.87,0,*64
1536670923.17,23194,18.25,74560.8,6.71,-1.59,0.21,0,*63
1536670924.35,23195,18.25,74572.5,6.71,-1.75,-0.29,0,*49
1536670925.54,23196,18.25,74584.0,6.71,-1.51,0.17,0,*6C
1536670926.77,23197,18.19,74582.8,6.73,-2.59,-0.61,0,*48
1536670928.01,23198,18.25,74576.0,6.73,-3.35,-0.89,0,*4A
1536670929.22,23199,18.25,74576.5,6.73,-4.61,-1.75,0,*7F
1536670930.43,23200,18.25,74576.0,6.71,-4.81,-1.67,0,*73
1536670931.65,23201,18.25,74586.8,6.71,-5.31,-1.79,0,*77
1536670932.92,23202,18.19,74580.3,6.69,-5.89,-2.11,0,*73
1536670934.11,23203,18.25,74580.3,6.67,-7.19,-3.19,0,*7E
1536670935.33,23204,18.25,74574.5,6.65,-6.89,-2.95,0,*76
1536670936.53,23205,18.25,74566.3,6.59,-5.55,-2.15,0,*72
1536670937.77,23206,18.25,74568.8,6.59,-3.55,-1.13,0,*72
1536670938.98,23207,18.25,74570.3,6.57,-3.19,-0.81,0,*4F
1536670940.19,23208,18.25,74574.3,6.57,-2.83,-0.81,0,*42
1536670941.42,23209,18.25,74568.3,6.53,-2.55,-0.61,0,*42
1536670942.66,23210,18.25,74574.8,6.53,-2.11,-0.77,0,*4D
1536670943.93,23211,18.25,74582.3,6.53,-1.99,-1.09,0,*77
1536670945.14,23212,18.25,74582.3,6.51,-2.23,-1.25,0,*7A
1536670946.38,23213,18.25,74582.0,6.51,-2.83,-1.35,0,*70
1536670947.62,23214,18.25,74582.8,6.51,-3.51,-1.79,0,*71
1536670948.87,23215,18.25,74580.0,6.51,-3.35,-1.35,0,*7A
1536670950.13,23216,18.25,74580.3,6.51,-3.43,-1.13,0,*7C
1536670951.35,23217,18.25,74584.8,6.51,-3.11,-0.49,0,*44
1536670952.57,23218,18.25,74586.0,6.49,-3.35,-1.09,0,*71
1536670953.8,23219,18.25,74594.3,6.47,-3.43,-1.33,0,*76
1536670955.01,23220,18.25,74592.0,6.45,-2.51,-0.81,0,*44
1536670956.24,23221,18.25,74594.3,6.43,-1.91,-0.69,0,*4A
1536670957.43,23222,18.25,74590.8,6.41,-1.25,-0.57,0,*49
1536670958.61,23223,18.25,74592.8,6.41,-1.25,-0.61,0,*4D
1536670959.83,23224,18.25,74594.0,6.39,-1.29,-0.73,0,*4A
1536670961.04,23225,18.25,74594.3,6.37,-1.79,-1.01,0,*74
1536670962.22,23226,18.25,74588.3,6.37,-1.67,-0.69,0,*47
1536670963.45,23227,18.25,74586.0,6.35,-0.81,0.21,0,*5C
1536670964.68,23228,18.25,74572.0,6.35,-0.37,0.79,0,*53
1536670965.91,23229,18.25,74540.3,6.35,-0.37,1.09,0,*64
1536670967.13,23230,18.25,74558.3,6.35,0.05,1.67,0,*78
1536670968.34,23231,18.25,74570.8,6.37,0.21,1.55,0,*4C
1536670969.57,23232,18.25,74572.5,6.39,-0.03,1.33,0,*5C
1536670970.76,23233,18.25,74576.0,6.37,-0.37,0.67,0,*54
1536670972.01,23234,18.25,74576.3,6.39,0.25,1.13,0,*41
1536670973.26,23235,18.25,74584.5,6.39,0.47,1.33,0,*46
1536670974.46,23236,18.25,74592.0,6.37,-1.01,-0.29,0,*42
1536670975.65,23237,18.25,74586.0,6.37,-1.63,-0.77,0,*4C
1536670976.86,23238,18.25,74566.0,6.35,-1.51,-0.53,0,*46
1536670978.08,23239,18.25,74568.3,6.31,-0.57,0.33,0,*5F
1536670979.32,23240,18.25,74568.5,6.35,-2.55,-1.75,0,*7B
1536670980.57,23241,18.25,74566.0,6.27,-2.27,-1.35,0,*78
1536670981.83,23242,18.25,74564.0,6.27,-1.83,-0.89,0,*40
1536670983.08,23243,18.25,74576.8,6.27,-1.47,-0.49,0,*45
1536670984.29,23244,18.25,74568.0,6.27,-1.63,-0.57,0,*4B
1536670985.53,23245,18.25,74570.0,6.27,-2.35,-0.97,0,*46
1536670986.79,23246,18.25,74582.5,6.27,-1.47,0.21,0,*63
1536670987.98,23247,18.25,74574.0,6.25,-2.19,-0.53,0,*40
1536670989.23,23248,18.25,74572.5,6.25,-1.05,0.55,0,*6A
1536670990.43,23249,18.25,74580.5,6.23,-1.51,0.05,0,*59
1536670991.67,23250,18.25,74582.0,6.23,-1.29,0.25,0,*6C
1536670992.89,23251,18.25,74586.0,6.23,-0.49,0.79,0,*53
1536670994.12,23252,18.25,74584.8,6.23,-0.29,0.25,0,*5F
1536670995.3,23253,18.25,74586.3,6.25,-0.41,0.09,0,*68
1536670996.55,23254,18.25,74586.8,6.23,0.17,0.83,0,*75
1536670997.75,23255,18.25,74590.0,6.25,-0.15,0.67,0,*57
1536670998.94,23256,18.25,74590.8,6.25,0.05,0.71,0,*4F
1536671000.14,23257,18.25,74584.0,6.25,-1.51,-0.41,0,*4D
1536671001.35,23258,18.25,74584.0,6.25,-2.15,-0.89,0,*45
1536671002.54,23259,18.25,74588.3,6.25,-1.79,-0.19,0,*44
1536671003.79,23260,18.25,74584.3,6.27,-0.89,0.95,0,*5B
1536671005.0,23261,18.25,74584.8,6.29,-0.37,1.13,0,*6E
1536671006.24,23262,18.25,74584.5,6.27,0.13,1.25,0,*4D
1536671007.45,23263,18.25,74584.5,6.27,0.97,1.79,0,*49
1536671008.65,23264,18.25,74590.8,6.29,1.01,1.67,0,*71
1536671009.89,23265,18.25,74596.3,6.29,1.55,2.09,0,*7A
1536671011.12,23266,18.25,74588.8,6.29,2.51,2.89,0,*76
1536671012.37,23267,18.25,74590.3,6.35,2.85,3.11,0,*73
1536671013.59,23268,18.25,74594.3,6.37,2.85,3.19,0,*76
1536671014.82,23269,18.25,74594.5,6.39,2.77,2.99,0,*7D
1536671016.05,23270,18.19,74590.0,6.41,2.59,2.81,0,*7F
1536671017.31,23271,18.25,74596.5,6.43,2.69,3.03,0,*74
1536671018.56,23272,18.25,74592.5,6.47,1.97,2.39,0,*79
1536671019.82,23273,18.25,74590.8,6.47,1.51,2.13,0,*7A
1536671021.06,23274,18.25,74598.0,6.47,0.83,1.89,0,*43
1536671022.28,23275,18.25,74588.0,6.47,-0.29,1.21,0,*6D
1536671023.5,23276,18.25,74596.0,6.47,-0.45,1.43,0,*60
1536671024.73,23277,18.25,74588.0,6.47,-0.29,1.85,0,*61
1536671025.95,23278,18.25,74578.5,6.47,0.67,2.61,0,*40
1536671027.18,23279,18.25,74582.3,6.47,1.55,2.95,0,*7A
1536671028.43,23280,18.25,74578.3,6.47,2.13,3.07,0,*77
1536671029.68,23281,18.25,74568.5,6.47,2.01,2.77,0,*73
1536671030.91,23282,18.25,74572.5,6.49,2.51,3.23,0,*7B
1536671032.13,23283,18.25,74570.0,6.49,1.89,2.55,0,*7C
1536671033.36,23284,18.25,74560.0,6.45,1.97,2.59,0,*74
1536671034.59,23285,18.25,74556.3,6.45,2.39,2.69,0,*71
1536671035.84,23286,18.25,74556.5,6.47,2.47,2.69,0,*79
1536671037.06,23287,18.25,74566.3,6.45,2.73,2.89,0,*73
1536671038.27,23288,18.25,74570.8,6.45,2.17,2.35,0,*79
1536671039.44,23289,18.25,74572.0,6.45,2.35,2.35,0,*78
1536671040.64,23290,18.25,74564.0,6.45,2.17,2.27,0,*73
1536671041.87,23291,18.25,74568.5,6.45,1.97,2.01,0,*7D
1536671043.05,23292,18.25,74582.8,6.45,1.75,1.79,0,*7E
1536671044.25,23293,18.25,74588.3,6.41,1.75,2.09,0,*7F
1536671045.51,23294,18.25,74592.5,6.43,1.37,2.01,0,*74
1536671046.75,23295,18.25,74594.5,6.43,0.41,1.71,0,*41
1536671047.97,23296,18.25,74582.8,6.41,0.67,2.09,0,*48
1536671049.2,23297,18.25,74582.8,6.41,1.25,2.43,0,*70
1536671050.43,23298,18.25,74578.8,6.43,1.75,2.43,0,*78
1536671051.68,23299,18.25,74588.8,6.43,1.59,1.97,0,*7D
1536671052.93,23300,18.25,74606.5,6.43,1.17,1.59,0,*74
1536671054.18,23301,18.25,74604.8,6.43,0.91,1.17,0,*40
1536671055.38,23302,18.25,74608.3,6.43,-0.11,0.05,0,*64
1536671056.63,23303,18.25,74602.8,6.43,-2.95,-2.47,0,*72
1536671057.85,23304,18.25,74596.8,6.39,-3.11,-1.59,0,*79
1536671059.07,23305,18.25,74598.5,6.37,-3.67,-1.67,0,*7A
1536671060.28,23306,18.25,74588.3,6.37,-5.35,-1.99,0,*79
1536671061.48,23307,18.25,74598.8,6.29,-4.53,-0.97,0,*49
1536671062.69,23308,18.25,74596.5,6.27,-3.39,0.01,0,*51
1536671063.96,23309,18.25,74588.0,6.27,-2.51,0.59,0,*62
1536671065.19,23310,18.25,74584.8,6.23,-1.75,0.59,0,*6B
1536671066.4,23311,18.25,74584.5,6.23,-0.37,1.05,0,*65
1536671067.6,23312,18.25,74586.8,6.19,0.05,0.87,0,*48
1536671068.79,23313,18.25,74588.3,6.21,0.41,1.05,0,*49
1536671070.01,23314,18.25,74586.5,6.19,1.29,1.79,0,*71
1536671071.26,23315,18.25,74586.8,6.17,1.25,1.43,0,*7B
1536671072.49,23316,18.25,74586.3,6.15,2.05,2.05,0,*7A
1536671073.72,23317,18.25,74584.3,6.13,2.43,2.35,0,*7C
1536671074.95,23318,18.25,74584.3,6.13,2.35,1.93,0,*7D
1536671076.17,23319,18.25,74584.5,6.13,2.25,1.79,0,*79
1536671077.4,23320,18.25,74582.5,6.15,1.51,1.17,0,*7D
1536671078.66,23321,18.25,74572.3,6.13,1.29,1.29,0,*78
1536671079.88,23322,18.25,74582.5,6.15,0.13,0.47,0,*7C
1536671081.09,23323,18.25,74576.3,6.09,-0.33,-0.07,0,*46
1536671082.31,23324,18.25,74570.3,6.07,0.41,0.91,0,*75
1536671083.56,23325,18.25,74566.3,6.07,1.13,1.63,0,*7E
1536671084.79,23326,18.25,74570.5,6.07,1.17,1.59,0,*70
1536671086.03,23327,18.25,74570.0,6.05,0.97,1.21,0,*45
1536671087.29,23328,18.25,74570.8,6.05,1.13,1.25,0,*73
1536671088.51,23329,18.25,74578.8,6.01,0.95,1.05,0,*4B
1536671089.76,23330,18.25,74564.5,6.01,0.55,0.71,0,*7D
1536671090.98,23331,18.25,74570.8,5.99,1.75,1.85,0,*77
1536671092.24,23332,18.25,74570.8,5.97,2.43,2.59,0,*7E
1536671093.42,23333,18.25,74572.0,5.99,2.61,2.91,0,*75
1536671094.63,23334,18.25,74568.8,5.99,2.91,3.11,0,*74
1536671095.84,23335,18.25,74574.3,6.03,3.03,3.25,0,*78
1536671097.06,23336,18.25,74568.0,6.03,3.03,3.25,0,*7B
1536671098.27,23337,18.25,74574.5,6.03,2.61,2.77,0,*79
1536671099.48,23338,18.25,74564.5,6.03,2.65,2.85,0,*7F
1536671100.69,23339,18.25,74560.5,6.03,2.95,3.11,0,*7D
1536671101.92,23340,18.25,74566.8,6.05,2.91,3.19,0,*79
1536671103.15,23341,18.25,74570.3,6.07,2.73,3.03,0,*7D
1536671104.38,23342,18.25,74582.0,6.07,2.73,3.19,0,*75
1536671105.61,23343,18.25,74584.5,6.09,2.91,3.23,0,*7F
1536671106.88,23344,18.25,74576.3,6.09,2.51,2.51,0,*70
1536671108.12,23345,18.25,74572.3,6.13,2.65,2.89,0,*78
1536671109.34,23346,18.25,74598.5,6.13,2.27,2.55,0,*7C
1536671110.57,23347,18.25,74598.0,6.13,2.55,2.95,0,*74
1536671111.8,23348,18.25,74594.0,6.13,2.55,2.95,0,*7B
1536671113.03,23349,18.25,74590.0,6.17,2.27,2.77,0,*77
1536671114.27,23350,18.25,74592.8,6.17,2.09,2.65,0,*70
1536671115.53,23351,18.25,74596.5,6.17,2.05,2.89,0,*7F
1536671116.79,23352,18.25,74602.8,6.17,2.43,3.03,0,*7D
1536671118.03,23353,18.25,74604.5,6.17,2.65,3.15,0,*7F
1536671119.26,23354,18.25,74600.5,6.19,2.01,2.59,0,*7D
1536671120.49,23355,18.25,74596.8,6.19,0.75,1.29,0,*49
1536671121.73,23356,18.25,74602.3,6.17,0.75,1.55,0,*4F
1536671122.94,23357,18.25,74604.5,6.17,0.97,1.83,0,*49
1536671124.18,23358,18.25,74592.3,6.15,1.21,2.05,0,*75
1536671125.44,23359,18.25,74594.3,6.17,1.37,2.05,0,*71
1536671126.67,23360,18.25,74598.0,6.17,0.87,1.75,0,*45
1536671127.89,23361,18.25,74596.0,6.15,0.71,1.89,0,*4C
1536671129.14,23362,18.25,74598.0,6.17,0.41,1.85,0,*42
1536671130.39,23363,18.25,74594.5,6.17,0.51,2.17,0,*4A
1536671131.61,23364,18.25,74592.3,6.17,0.63,2.31,0,*48
1536671132.87,23365,18.25,74598.5,6.17,1.33,2.69,0,*70
1536671134.13,23366,18.25,74594.5,6.17,1.47,2.69,0,*70
1536671135.33,23367,18.25,74596.0,6.21,2.31,3.33,0,*78
1536671136.57,23368,18.25,74592.3,6.21,2.81,3.45,0,*7D
1536671137.78,23369,18.25,74588.5,6.19,2.95,3.45,0,*72
1536671138.96,23370,18.25,74584.8,6.21,3.29,3.63,0,*73
1536671140.18,23371,18.25,74580.5,6.21,3.19,3.53,0,*72
1536671141.38,23372,18.25,74576.5,6.21,3.19,3.55,0,*77
1536671142.62,23373,18.25,74580.8,6.21,3.15,3.45,0,*7B
1536671143.85,23374,18.25,74582.5,6.21,3.45,3.75,0,*7A
1536671145.11,23375,18.25,74580.5,6.23,3.23,3.37,0,*7F
1536671146.35,23376,18.25,74572.8,6.23,3.25,3.37,0,*7A
1536671147.6,23377,18.25,74576.3,6.23,3.49,3.67,0,*74
1536671148.86,23378,18.25,74586.0,6.23,3.07,3.11,0,*70
1536671150.1,23379,18.25,74590.3,6.23,2.85,2.99,0,*7B
1536671151.33,23380,18.25,74598.5,6.23,3.25,3.37,0,*73
1536671152.59,23381,18.25,74600.3,6.23,3.67,3.71,0,*76
1536671153.81,23382,18.25,74600.8,6.25,3.67,3.59,0,*79
1536671155.02,23383,18.25,74596.5,6.25,3.25,3.23,0,*73
1536671156.28,23384,18.25,74590.0,6.27,3.23,3.11,0,*71
1536671157.51,23385,18.25,74588.0,6.27,2.89,2.99,0,*70
1536671158.76,23386,18.25,74598.0,6.27,2.89,3.23,0,*73
1536671160.03,23387,18.25,74594.5,6.27,2.59,3.15,0,*7A
1536671161.23,23388,18.25,74602.3,6.29,2.27,2.89,0,*76
1536671162.44,23389,18.25,74598.5,6.27,2.31,2.91,0,*77
1536671163.67,23390,18.25,74600.3,6.31,2.61,3.07,0,*73
1536671164.93,23391,18.25,74596.0,6.31,2.81,3.53,0,*7D
1536671166.16,23392,18.25,74598.0,6.31,2.81,3.63,0,*7D
1536671167.41,23393,18.25,74600.5,6.31,2.81,3.67,0,*78
1536671168.64,23394,18.25,74594.0,6.31,2.77,3.55,0,*77
1536671169.84,23395,18.25,74600.8,6.31,3.25,3.85,0,*7D
1536671171.1,23396,18.25,74598.3,6.31,3.41,3.79,0,*7F
1536671172.37,23397,18.25,74602.0,6.31,3.07,3.41,0,*77
1536671173.59,23398,18.25,74600.0,6.35,3.55,3.71,0,*78
1536671174.83,23399,18.25,74596.8,6.31,3.79,3.93,0,*7F
1536671176.08,23400,18.25,74594.3,6.31,3.79,4.01,0,*74
1536671177.31,23401,18.25,74588.5,6.35,4.01,4.15,0,*7C
1536671178.54,23402,18.25,74594.5,6.31,3.53,3.55,0,*78
1536671179.76,23403,18.25,74594.8,6.31,3.53,3.55,0,*79
1536671180.99,23404,18.25,74598.8,6.31,3.63,3.75,0,*7F
1536671182.25,23405,18.25,74596.8,6.31,3.75,3.97,0,*75
1536671183.51,23406,18.25,74596.8,6.35,3.71,3.79,0,*76
1536671184.74,23407,18.25,74594.0,6.31,3.75,3.85,0,*74
1536671185.97,23408,18.25,74590.5,6.35,3.79,3.93,0,*74
1536671187.23,23409,18.25,74588.5,6.31,3.79,3.79,0,*75
1536671188.47,23410,18.25,74586.3,6.35,3.71,3.81,0,*76
1536671189.67,23411,18.25,74586.5,6.35,3.59,3.59,0,*78
1536671190.9,23412,18.25,74584.3,6.31,3.75,3.85,0,*70
1536671192.13,23413,18.25,74590.3,6.31,3.67,3.85,0,*72
1536671193.39,23414,18.25,74590.0,6.31,3.75,3.79,0,*75
1536671194.62,23415,18.25,74584.3,6.35,3.49,3.59,0,*7D
1536671195.85,23416,18.25,74580.3,6.31,3.29,3.45,0,*71
1536671197.06,23417,18.25,74568.5,6.31,3.29,3.25,0,*76
1536671198.32,23418,18.25,74588.5,6.31,3.41,3.45,0,*71
1536671199.58,23419,18.25,74578.3,6.31,3.45,3.53,0,*73
1536671200.79,23420,18.25,74572.3,6.29,3.29,3.41,0,*79
1536671202.02,23421,18.25,74572.8,6.29,3.37,3.49,0,*7F
1536671203.28,23422,18.25,74564.8,6.27,3.23,3.15,0,*7E
1536671204.49,23423,18.25,74570.3,6.29,3.25,3.37,0,*77
1536671205.75,23424,18.25,74574.8,6.27,3.37,3.41,0,*7C
1536671206.99,23425,18.25,74612.3,6.29,3.23,3.15,0,*77
1536671208.24,23426,18.25,74606.0,6.27,2.77,2.69,0,*70
1536671209.5,23427,18.25,74588.0,6.27,2.89,2.89,0,*7E
1536671210.73,23428,18.25,74580.3,6.27,2.77,2.91,0,*79
1536671212.0,23429,18.25,74578.3,6.27,2.55,2.81,0,*79
1536671213.23,23430,18.25,74574.0,6.25,2.51,2.85,0,*73
1536671214.47,23431,18.25,74578.8,6.25,2.51,2.85,0,*72
1536671215.68,23432,18.25,74576.0,6.25,2.27,2.73,0,*79
1536671216.89,23433,18.25,74580.8,6.23,2.65,2.99,0,*7C
1536671218.15,23434,18.25,74578.3,6.23,2.51,2.77,0,*7C
1536671219.41,23435,18.25,74582.5,6.23,2.85,3.11,0,*75
1536671220.67,23436,18.25,74594.3,6.23,3.11,3.19,0,*72
1536671221.93,23437,18.25,74592.3,6.23,3.07,3.11,0,*7C
1536671223.17,23438,18.25,74594.0,6.23,3.25,3.33,0,*73
1536671224.34,23439,18.25,74596.3,6.21,2.31,2.31,0,*77
1536671225.58,23440,18.25,74592.8,6.19,1.89,2.13,0,*72
1536671226.81,23441,18.25,74592.5,6.21,2.47,2.69,0,*74
1536671228.04,23442,18.25,74582.5,6.17,1.75,2.05,0,*7A
1536671229.25,23443,18.25,74590.0,6.15,2.17,2.27,0,*7E
1536671230.46,23444,18.25,74592.8,6.15,2.35,2.43,0,*7B
1536671231.66,23445,18.25,74596.5,6.15,2.25,2.35,0,*7A
1536671232.92,23446,18.25,74594.8,6.09,2.01,2.01,0,*75
1536671234.19,23447,18.25,74586.3,6.09,1.13,1.13,0,*74
1536671235.41,23448,18.25,74586.5,6.07,1.13,1.05,0,*72
1536671236.67,23449,18.25,74584.8,6.05,1.37,1.55,0,*72
1536671237.9,23450,18.25,74580.8,6.03,1.67,1.93,0,*73
1536671239.14,23451,18.25,74582.0,6.01,1.55,1.79,0,*75
1536671240.37,23452,18.25,74570.0,6.01,1.67,1.83,0,*72
1536671241.62,23453,18.25,74566.8,5.97,2.05,2.21,0,*73
1536671242.83,23454,18.25,74564.3,5.97,2.31,2.35,0,*76
1536671244.07,23455,18.25,74566.3,5.97,2.59,2.65,0,*7C
1536671245.27,23456,18.25,74560.3,5.97,2.91,2.91,0,*70
1536671246.53,23457,18.25,74558.3,5.97,2.77,2.77,0,*71
1536671247.77,23458,18.25,74556.8,5.97,2.65,2.59,0,*71
1536671249.0,23459,18.25,74558.3,5.97,2.91,3.03,0,*75
1536671250.26,23460,18.25,74560.8,5.97,2.77,2.77,0,*75
1536671251.52,23461,18.25,74564.3,5.97,2.89,2.89,0,*74
1536671252.78,23462,18.25,74564.0,5.97,2.89,2.89,0,*77
1536671253.99,23463,18.25,74566.0,5.97,2.65,2.65,0,*76
1536671255.25,23464,18.25,74566.3,5.97,2.81,2.81,0,*71
1536671256.49,23465,18.19,74564.3,5.93,2.61,2.55,0,*73
1536671257.72,23466,18.25,74574.8,5.95,2.51,2.55,0,*75
1536671258.99,23467,18.25,74578.3,5.93,2.43,2.43,0,*76
1536671260.24,23468,18.25,74578.3,5.93,2.55,2.55,0,*79
1536671261.5,23469,18.25,74576.8,5.93,2.77,2.73,0,*7C
1536671262.77,23470,18.25,74582.3,5.93,2.43,2.39,0,*7D
1536671263.99,23471,18.25,74584.5,5.93,2.61,2.61,0,*71
1536671265.25,23472,18.25,74582.0,5.93,2.55,2.51,0,*76
1536671266.51,23473,18.25,74582.5,5.89,2.13,2.17,0,*7C
1536671267.77,23474,18.25,74582.3,5.89,2.09,2.13,0,*74
1536671269.01,23475,18.25,74580.3,5.85,2.21,2.13,0,*73
1536671270.25,23476,18.25,74580.5,5.85,2.05,2.05,0,*71
1536671271.5,23477,18.25,74582.3,5.85,1.97,1.93,0,*74
1536671272.7,23478,18.25,74578.0,5.83,1.71,1.75,0,*7D
1536671273.95,23479,18.25,74578.5,5.81,1.37,1.43,0,*79
1536671275.16,23480,18.25,74576.5,5.79,1.43,1.43,0,*7B
1536671276.37,23481,18.25,74574.0,5.79,1.67,1.59,0,*77
1536671277.62,23482,18.25,74568.0,5.77,2.13,2.25,0,*72
1536671278.84,23483,18.25,74570.8,5.77,2.89,2.95,0,*7B
1536671280.03,23484,18.25,74570.8,5.75,2.95,3.07,0,*79
1536671281.28,23485,18.25,74574.0,5.77,3.07,3.11,0,*77
1536671282.53,23486,18.25,74578.0,5.77,3.07,3.11,0,*74
1536671283.73,23487,18.25,74576.3,5.77,2.99,2.99,0,*72
1536671284.98,23488,18.25,74572.0,5.77,3.07,3.07,0,*7D
1536671286.2,23489,18.25,74568.5,5.77,2.89,2.95,0,*71
1536671287.4,23490,18.25,74576.3,5.75,2.59,2.65,0,*79
1536671288.65,23491,18.25,74580.3,5.77,2.89,2.89,0,*75
1536671289.9,23492,18.25,74580.8,5.77,3.07,3.11,0,*71
1536671291.11,23493,18.25,74578.8,5.77,2.85,2.95,0,*76
1536671292.33,23494,18.25,74576.8,5.77,2.95,3.07,0,*7A
1536671293.58,23495,18.25,74576.5,5.77,3.07,3.11,0,*76
1536671294.8,23496,18.25,74578.8,5.77,3.33,3.29,0,*79
1536671296.02,23497,18.25,74584.3,5.77,2.89,2.99,0,*72
1536671297.24,23498,18.25,74584.5,5.77,2.77,2.95,0,*70
1536671298.48,23499,18.25,74588.3,5.77,2.69,2.69,0,*7D
1536671299.67,23500,18.25,74594.0,5.77,2.35,2.27,0,*7F
1536671300.92,23501,18.25,74584.8,5.77,2.25,2.17,0,*7C
1536671302.13,23502,18.25,74586.5,5.75,1.93,1.97,0,*78
1536671303.31,23503,18.25,74580.8,5.75,1.75,1.83,0,*74
1536671304.54,23504,18.25,74580.5,5.75,1.85,1.85,0,*7A
1536671305.75,23505,18.25,74576.3,5.71,2.21,2.21,0,*7F
1536671306.97,23506,18.25,74580.0,5.71,2.09,2.09,0,*7C
1536671308.2,23507,18.25,74572.5,5.71,2.51,2.51,0,*7D
1536671309.43,23508,18.25,74578.5,5.71,2.17,2.17,0,*72
1536671310.62,23509,18.25,74582.3,5.69,2.31,2.31,0,*7A
1536671311.84,23510,18.25,74582.3,5.69,2.69,2.65,0,*7E
1536671313.06,23511,18.25,74586.3,5.67,2.47,2.39,0,*74
1536671314.29,23512,18.25,74582.0,5.67,2.39,2.39,0,*7E
1536671315.52,23513,18.25,74586.8,5.67,2.51,2.51,0,*7F
1536671316.7,23514,18.25,74584.0,5.67,2.65,2.61,0,*7C
1536671317.9,23515,18.25,74584.8,5.67,2.91,3.03,0,*73
1536671319.15,23516,18.25,74584.8,5.69,2.81,2.81,0,*74
1536671320.37,23517,18.25,74590.8,5.63,2.55,2.55,0,*7F
1536671321.56,23518,18.25,74592.0,5.63,2.85,2.95,0,*71
1536671322.78,23519,18.25,74586.5,5.63,2.69,2.85,0,*73
1536671323.99,23520,18.25,74588.5,5.67,2.59,2.61,0,*74
1536671325.2,23521,18.25,74592.8,5.67,2.85,2.85,0,*7E
1536671326.4,23522,18.25,74588.3,5.63,3.29,3.37,0,*76
1536671327.57,23523,18.25,74586.3,5.63,3.55,3.55,0,*78
1536671328.74,23524,18.25,74590.0,5.67,3.59,3.59,0,*7B
1536671329.9,23525,18.25,74586.8,5.71,3.59,3.59,0,*7D